Volver al catálogo

STARLINK-37773

ActivoComunicacionesSSO
NORAD 69346·PAYLOAD·🇺🇸 United States

Lanzado Jun 3, 2026 desde Vandenberg Space Force Base

Loading…

Próximos Pases (próximas 24 horas)

TLE

ActualizadoSource: CelesTrak SupGP

Época: Sep 14, 2026, 22:52 UTC

1 69346C 26122T   26257.95326389  .00041651  00000+0  12931-2 0  2579
2 69346  97.2825 286.6854 0001231  89.5130 186.1030 15.33415213    13

Sigue STARLINK-37773 en tiempo real con AllMySat

Download on the App Store